OE5HMR-13 Weather Reports


time (UTC)temp
F
wind
direction
speed
knots
gust
knots
rain 1hr
in
rain 24hr
in
rain mn
in
humidity
%
barometer
mb
20260507145536 57 0.0 0.0 0.00 0.00 0.00 54 1012.4
20260507144529 57 0.0 0.0 0.00 0.00 0.00 55 1012.4
20260507143538 56 0.0 0.0 0.00 0.00 0.00 54 1012.4
20260507142532 56 0.0 0.0 0.00 0.00 0.00 53 1012.4
20260507141528 56 0.0 0.0 0.00 0.00 0.00 53 1012.4
20260507140534 57 0.0 0.0 0.00 0.00 0.00 52 1012.4
20260507135529 58 0.0 0.0 0.00 0.00 0.00 52 1012.4
20260507134542 59 0.0 0.0 0.00 0.00 0.00 51 1012.4
20260507133529 60 0.0 0.0 0.00 0.00 0.00 51 1012.4
20260507132529 60 0.0 0.0 0.00 0.00 0.00 51 1012.4
20260507131552 60 0.0 0.0 0.00 0.00 0.00 51 1012.4
20260507130536 60 0.0 0.0 0.00 0.00 0.00 51 1012.4
20260507125544 61 0.0 0.0 0.00 0.00 0.00 52 1012.4
20260507124535 61 0.0 0.0 0.00 0.00 0.00 52 1012.4
20260507123541 60 0.0 0.0 0.00 0.00 0.00 53 1012.4
20260507122531 61 0.0 0.0 0.00 0.00 0.00 54 1012.4
20260507121546 60 0.0 0.0 0.00 0.00 0.00 55 1012.4
20260507120530 59 0.0 0.0 0.00 0.00 0.00 55 1012.4
20260507115529 59 0.0 0.0 0.00 0.00 0.00 54 1012.4
20260507114539 60 0.0 0.0 0.00 0.00 0.00 54 1012.2
20260507113529 59 0.0 0.0 0.00 0.00 0.00 55 1011.3
20260507112549 58 0.0 0.0 0.00 0.00 0.00 58 1012.4
20260507111527 57 0.0 0.0 0.00 0.00 0.00 58 1012.4
20260507110528 57 0.0 0.0 0.00 0.00 0.00 58 1012.4
20260507105535 56 0.0 0.0 0.00 0.00 0.00 57 1012.4
20260507104550 57 0.0 0.0 0.00 0.00 0.00 57 1012.4
20260507103530 58 0.0 0.0 0.00 0.00 0.00 57 1012.4
20260507102534 58 0.0 0.0 0.00 0.00 0.00 59 1012.4
20260507101540 57 0.0 0.0 0.00 0.00 0.00 60 1012.4
20260507100605 56 0.0 0.0 0.00 0.00 0.00 61 1012.4
20260507095533 55 0.0 0.0 0.00 0.00 0.00 58 1012.4
20260507094620 57 0.0 0.0 0.00 0.00 0.00 58 1012.4
20260507093532 57 0.0 0.0 0.00 0.00 0.00 60 1012.4
20260507092559 57 0.0 0.0 0.00 0.00 0.00 60 1012.4
20260507091533 57 0.0 0.0 0.00 0.00 0.00 61 1012.4
20260507090539 56 0.0 0.0 0.00 0.00 0.00 64 1012.4
20260507085539 54 0.0 0.0 0.00 0.00 0.00 63 1012.4
20260507084533 53 0.0 0.0 0.00 0.00 0.00 64 1012.4
20260507083534 52 0.0 0.0 0.00 0.00 0.00 65 1012.4
20260507082532 52 0.0 0.0 0.00 0.00 0.00 66 1011.3
20260507081528 53 0.0 0.0 0.00 0.00 0.00 68 1011.3
20260507080536 52 0.0 0.0 0.00 0.00 0.00 69 1011.3
20260507075529 51 0.0 0.0 0.00 0.00 0.00 69 1011.3
20260507074531 51 0.0 0.0 0.00 0.00 0.00 71 1011.3
20260507073550 50 0.0 0.0 0.00 0.00 0.00 72 1011.3
20260507072600 50 0.0 0.0 0.00 0.00 0.00 74 1011.3
20260507071555 49 0.0 0.0 0.00 0.00 0.00 75 1011.3
20260507070550 49 0.0 0.0 0.00 0.00 0.00 75 1011.3
20260507065532 49 0.0 0.0 0.00 0.00 0.00 77 1011.3
20260507064548 48 0.0 0.0 0.00 0.00 0.00 79 1011.3
20260507063535 47 0.0 0.0 0.00 0.00 0.00 80 1011.3
20260507062532 46 0.0 0.0 0.00 0.00 0.00 80 1011.3
20260507061539 46 0.0 0.0 0.00 0.00 0.00 80 1011.3
20260507060532 45 0.0 0.0 0.00 0.00 0.00 80 1011.3
20260507055546 45 0.0 0.0 0.00 0.00 0.00 80 1011.3
20260507054534 45 0.0 0.0 0.00 0.00 0.00 80 1011.3
20260507053533 45 0.0 0.0 0.00 0.00 0.00 81 1011.3
20260507052545 46 0.0 0.0 0.00 0.00 0.00 81 1011.3
20260507051532 46 0.0 0.0 0.00 0.00 0.00 81 1011.3
20260507050614 46 0.0 0.0 0.00 0.00 0.00 81 1010.2
20260507045533 45 0.0 0.0 0.00 0.00 0.00 81 1010.2
20260507044529 45 0.0 0.0 0.00 0.00 0.00 81 1010.2
20260507043527 45 0.0 0.0 0.00 0.00 0.00 81 1010.2
20260507042527 45 0.0 0.0 0.00 0.00 0.00 81 1010.2
20260507041537 45 0.0 0.0 0.00 0.00 0.00 81 1010.2
20260507040528 45 0.0 0.0 0.00 0.00 0.00 81 1010.2
20260507035545 45 0.0 0.0 0.00 0.00 0.00 81 1010.2
20260507034557 46 0.0 0.0 0.00 0.00 0.00 81 1010.2
20260507033537 46 0.0 0.0 0.00 0.00 0.00 81 1010.2
20260507032533 46 0.0 0.0 0.00 0.00 0.00 81 1010.2
20260507031534 46 0.0 0.0 0.00 0.00 0.00 81 1010.2
20260507030540 46 0.0 0.0 0.00 0.00 0.00 81 1010.2
20260507025553 46 0.0 0.0 0.00 0.00 0.00 81 1009.1
20260507024533 46 0.0 0.0 0.00 0.00 0.00 81 1009.1
20260507023540 46 0.0 0.0 0.00 0.00 0.00 81 1009.1
20260507022530 47 0.0 0.0 0.00 0.00 0.00 81 1009.1
20260507021540 47 0.0 0.0 0.00 0.00 0.00 81 1009.1
20260507020532 47 0.0 0.0 0.00 0.00 0.00 81 1009.1
20260507015527 47 0.0 0.0 0.00 0.00 0.00 81 1009.1
20260507014530 48 0.0 0.0 0.00 0.00 0.00 81 1009.1
20260507013529 48 0.0 0.0 0.00 0.00 0.00 81 1009.1
20260507012540 48 0.0 0.0 0.00 0.00 0.00 81 1009.1
20260507011532 48 0.0 0.0 0.00 0.00 0.00 81 1009.1
20260507010529 48 0.0 0.0 0.00 0.00 0.00 81 1009.1
20260507005535 48 0.0 0.0 0.00 0.00 0.00 81 1009.1
20260507004528 48 0.0 0.0 0.00 0.00 0.00 80 1009.1
20260507003533 48 0.0 0.0 0.00 0.00 0.00 80 1009.1
20260507002548 48 0.0 0.0 0.00 0.00 0.00 80 1009.1
20260507001648 48 0.0 0.0 0.00 0.00 0.00 80 1009.1
20260507000551 49 0.0 0.0 0.00 0.00 0.00 79 1009.1
20260506235531 49 0.0 0.0 0.00 0.00 0.00 79 1009.1
20260506234527 49 0.0 0.0 0.00 0.00 0.00 79 1009.1
20260506233542 49 0.0 0.0 0.00 0.00 0.00 79 1009.1
20260506232547 49 0.0 0.0 0.00 0.00 0.00 79 1009.1
20260506231542 49 0.0 0.0 0.00 0.00 0.00 79 1009.1
20260506230541 50 0.0 0.0 0.00 0.00 0.00 79 1009.1
20260506225528 50 0.0 0.0 0.00 0.00 0.00 79 1009.1
20260506224546 50 0.0 0.0 0.00 0.00 0.00 78 1009.1
20260506223537 50 0.0 0.0 0.00 0.00 0.00 78 1009.1
20260506222530 50 0.0 0.0 0.00 0.00 0.00 78 1008.0
20260506221536 50 0.0 0.0 0.00 0.00 0.00 78 1008.0
20260506220546 51 0.0 0.0 0.00 0.00 0.00 78 1008.0
20260506215535 51 0.0 0.0 0.00 0.00 0.00 78 1008.0
20260506214530 51 0.0 0.0 0.00 0.00 0.00 76 1008.0
20260506213528 51 0.0 0.0 0.00 0.00 0.00 74 1008.0
20260506212527 51 0.0 0.0 0.00 0.00 0.00 72 1008.0
20260506211543 51 0.0 0.0 0.00 0.00 0.00 71 1007.9
20260506210533 52 0.0 0.0 0.00 0.00 0.00 70 1006.9
20260506205532 52 0.0 0.0 0.00 0.00 0.00 70 1006.9
20260506204538 52 0.0 0.0 0.00 0.00 0.00 69 1006.9
20260506203611 53 0.0 0.0 0.00 0.00 0.00 68 1006.9
20260506202531 53 0.0 0.0 0.00 0.00 0.00 66 1006.9
20260506201609 54 0.0 0.0 0.00 0.00 0.00 65 1006.9
20260506200530 54 0.0 0.0 0.00 0.00 0.00 64 1006.9
20260506195536 54 0.0 0.0 0.00 0.00 0.00 62 1005.8
20260506194529 55 0.0 0.0 0.00 0.00 0.00 61 1005.8
20260506193529 55 0.0 0.0 0.00 0.00 0.00 60 1005.8
20260506192530 56 0.0 0.0 0.00 0.00 0.00 57 1005.8
20260506191531 57 0.0 0.0 0.00 0.00 0.00 55 1005.8
20260506190535 59 0.0 0.0 0.00 0.00 0.00 50 1005.8
20260506185527 61 0.0 0.0 0.00 0.00 0.00 45 1004.7
20260506184539 62 0.0 0.0 0.00 0.00 0.00 42 1004.7
20260506183536 62 0.0 0.0 0.00 0.00 0.00 41 1004.7
20260506182609 62 0.0 0.0 0.00 0.00 0.00 41 1004.7
20260506181536 63 0.0 0.0 0.00 0.00 0.00 40 1004.6
20260506180530 64 0.0 0.0 0.00 0.00 0.00 40 1003.6
20260506175527 64 0.0 0.0 0.00 0.00 0.00 39 1003.6
20260506174525 65 0.0 0.0 0.00 0.00 0.00 38 1003.6
20260506173557 66 0.0 0.0 0.00 0.00 0.00 38 1003.6
20260506172530 67 0.0 0.0 0.00 0.00 0.00 37 1003.6
20260506171527 68 0.0 0.0 0.00 0.00 0.00 37 1003.6
20260506170539 69 0.0 0.0 0.00 0.00 0.00 36 1003.6
20260506165550 69 0.0 0.0 0.00 0.00 0.00 36 1003.6
20260506164528 69 0.0 0.0 0.00 0.00 0.00 36 1003.6
20260506163527 70 0.0 0.0 0.00 0.00 0.00 37 1003.6
20260506162603 71 0.0 0.0 0.00 0.00 0.00 37 1003.6
20260506161538 71 0.0 0.0 0.00 0.00 0.00 38 1003.8
20260506160531 71 0.0 0.0 0.00 0.00 0.00 38 1004.7
20260506155526 70 0.0 0.0 0.00 0.00 0.00 39 1004.7
20260506154525 68 0.0 0.0 0.00 0.00 0.00 39 1004.7
20260506153547 67 0.0 0.0 0.00 0.00 0.00 40 1004.7
20260506152536 67 0.0 0.0 0.00 0.00 0.00 40 1004.7
20260506151526 67 0.0 0.0 0.00 0.00 0.00 40 1004.7
20260506150527 67 0.0 0.0 0.00 0.00 0.00 39 1004.7